DECAYED
Showing default

FLOCK 4Y 14, 55024 (Decayed)

Orbit data source: Space-Track

FLOCK 4Y 14, 55024 was a payload satellite owned by Planet (US) in LEO that was launched on Tue, 03 Jan 2023 UTC via an FALCON 9 launch vehicle from the Air Force Eastern Test Range (AFETR). Payload-class satellites include a variety of spacecraft equipped with specific instruments for various scientific and technological missions. These include communications satellites like Starlink; space stations such as the ISS; scientific satellites like the Hubble; Earth observation satellites from companies like Planet Labs, Umbra, and HawkEye 360; GPS; miniature CubeSats for education and research; and military/defense satellites.

Not visible in the next 10 days
Identifier
55024, 2023-001R
Orbit
Decayed
Country
Flag of USUS
Related business
Manufacturer
Planet
Mission
Decayed Commercial Imaging
Bus & Motor
CUBESAT 3U, Unknown motor
Mass
5.7 kg wet, 5.7 kg dry
Launch date (UTC)
2023-01-03 (3 years ago)
Launch vehicle
FALCON 9
Launch site
Air Force Eastern Test Range (AFETR)
Object type
Payload
Rocket body
Debris
Shape & HBR
Box + 2 Pan, 1.0 m
Radar Cross Section
0.108 m², Small (<0.1 m²)

Expand to show TLE details & history
Last TLE update: 4 months ago

TLE from 4 months ago
0 FLOCK 4Y 14
1 55024U 23001R   25262.86235856  .04335346  24220-5  19150-2 0  9993
2 55024  97.3545 341.2770 0013032 260.1835  99.7983 16.22178362151919
Epoch: 2025-09-19T20:41Z
TLE epoch observation values (Epoch: 2025-09-19T20:41:47.779Z)
Latitude
-0.00011°
Longitude
31.82442°
Altitude
218.346 km
Speed
7.775 km/s
True Right ascension
22h 45m 06s
True Declination
0° 00' 00"
Sunlit
Object was in full shadow at epoch
Visualization orbit readout
Latitude
Unknown
Longitude
Unknown
Altitude
Unknown
Speed
Unknown
Apparent Right ascension
Unknown
Apparent Declination
Unknown
Sunlit
N/A
Visualization observer readout
Local Sidereal Time
02:57:42
Azimuth
Unknown
Elevation
Unknown
Doppler factor
Unknown
Orbital elements
Apogee altitude
219.059 km
Perigee altitude
201.887 km
Semi-major axis
6,588.61 km
Eccentricity
0.0013
Inclination
97.3545°
RAAN
341.277°
Arg. of periapsis
260.1835°
True anomaly
99.94542°
Mean anomaly
99.7983°
Eccentric anomaly
99.87186°
Mean motion
4.05838 °/min
Orbital period
88.71 mins
BSTAR
0.001915
Loading maneuver chart data...
Computing Atmospheric mass density...

Documentation

Showing up to 5 results
|